User: anonymous   Login
Location: Newark
(15.4608°S, 41.1635°W)
Time: 00:38:16
(UTC+00:00)
Language:

N. Korean satellite - Orbit

View from above orbital plane
View from above orbital plane
View from above satellite
View from above satellite

Ground track
Ground track

The orbit data is extracted from the following two-line orbital elements,

1 39026U 12072A   21211.24775968  .00002521  00000-0  86752-4 0  9999
2 39026  97.2459 203.0800 0033910 229.7838 130.0435 15.30450842479576
Epoch (UTC): 30 July 2021 05:56:46
Eccentricity: 0.0033910
inclination: 97.2459°
perigee height: 451 km
apogee height: 498 km
right ascension of ascending node: 203.0800°
argument of perigee: 229.7838°
revolutions per day: 15.30450842
mean anomaly at epoch: 130.0435°
orbit number at epoch: 47957

The dashed part of the orbit path shows where the satellite is in the earth's shadow,  

DLR